| time (UTC) | temp F | wind direction | speed MPH | gust MPH | rain 1hr in | rain 24hr in | rain mn in | humidity % | barometer mb |
| 20260507140043 | 52 | 0.0 | 0.0 | 0.00 | 0.07 | 0.01 | 64 | 1013.1 | |
| 20260507134543 | 52 | 0.0 | 0.0 | 0.00 | 0.18 | 0.01 | 63 | 1013.2 | |
| 20260507133101 | 52 | 0.0 | 0.0 | 0.00 | 0.18 | 0.01 | 66 | 1013.3 | |
| 20260507131551 | 52 | 0.0 | 0.0 | 0.00 | 0.18 | 0.01 | 68 | 1013.1 | |
| 20260507130104 | 52 | 0.0 | 0.0 | 0.00 | 0.18 | 0.01 | 70 | 1013.2 | |
| 20260507124547 | 52 | 0.0 | 0.0 | 0.00 | 0.20 | 0.01 | 69 | 1013.0 | |
| 20260507123042 | 53 | 0.0 | 0.0 | 0.00 | 0.20 | 0.01 | 72 | 1013.3 | |
| 20260507121604 | 53 | 0.0 | 0.0 | 0.00 | 0.20 | 0.01 | 73 | 1012.9 | |
| 20260507120057 | 53 | 0.0 | 0.0 | 0.00 | 0.20 | 0.01 | 76 | 1013.0 | |
| 20260507114626 | 53 | 0.0 | 0.0 | 0.00 | 0.20 | 0.01 | 78 | 1012.7 | |
| 20260507113045 | 53 | 0.0 | 0.0 | 0.00 | 0.20 | 0.01 | 74 | 1012.4 | |
| 20260507111547 | 54 | 0.0 | 0.0 | 0.00 | 0.20 | 0.01 | 62 | 1012.4 | |
| 20260507110046 | 54 | 0.0 | 0.0 | 0.00 | 0.20 | 0.01 | 46 | 1012.3 | |
| 20260507104548 | 54 | 0.0 | 0.0 | 0.00 | 0.20 | 0.01 | 47 | 1012.2 | |
| 20260507103045 | 54 | 0.0 | 0.0 | 0.00 | 0.20 | 0.01 | 48 | 1012.3 | |
| 20260507101547 | 54 | 0.0 | 0.0 | 0.00 | 0.20 | 0.01 | 45 | 1011.9 | |
| 20260507100048 | 54 | 0.0 | 0.0 | 0.00 | 0.20 | 0.01 | 48 | 1011.9 | |
| 20260507094544 | 54 | 0.0 | 0.0 | 0.00 | 0.20 | 0.01 | 49 | 1012.0 | |
| 20260507093050 | 54 | 0.0 | 0.0 | 0.00 | 0.20 | 0.01 | 50 | 1011.8 | |
| 20260507091550 | 54 | 0.0 | 0.0 | 0.00 | 0.20 | 0.01 | 52 | 1011.6 | |
| 20260507090048 | 54 | 0.0 | 0.0 | 0.00 | 0.20 | 0.01 | 52 | 1011.8 | |
| 20260507084556 | 54 | 0.0 | 0.0 | 0.00 | 0.20 | 0.01 | 55 | 1011.5 | |
| 20260507083054 | 54 | 0.0 | 0.0 | 0.00 | 0.20 | 0.01 | 56 | 1011.6 | |
| 20260507081545 | 54 | 0.0 | 0.0 | 0.00 | 0.20 | 0.01 | 58 | 1011.3 | |
| 20260507080105 | 54 | 0.0 | 0.0 | 0.00 | 0.20 | 0.01 | 57 | 1010.9 | |
| 20260507074550 | 54 | 0.0 | 0.0 | 0.00 | 0.20 | 0.01 | 56 | 1010.9 | |
| 20260507073048 | 55 | 0.0 | 0.0 | 0.00 | 0.20 | 0.01 | 57 | 1010.5 | |
| 20260507071546 | 55 | 0.0 | 0.0 | 0.00 | 0.20 | 0.01 | 54 | 1010.8 | |
| 20260507070045 | 55 | 0.0 | 0.0 | 0.00 | 0.20 | 0.01 | 52 | 1010.7 | |
| 20260507064544 | 55 | 0.0 | 0.0 | 0.00 | 0.20 | 0.01 | 46 | 1010.6 | |
| 20260507063045 | 55 | 0.0 | 0.0 | 0.00 | 0.20 | 0.01 | 42 | 1010.8 | |
| 20260507061546 | 55 | 0.0 | 0.0 | 0.00 | 0.20 | 0.01 | 44 | 1010.3 | |
| 20260507060043 | 56 | 0.0 | 0.0 | 0.00 | 0.20 | 0.01 | 52 | 1010.6 | |
| 20260507054541 | 56 | 0.0 | 0.0 | 0.00 | 0.20 | 0.01 | 58 | 1010.6 | |
| 20260507053046 | 56 | 0.0 | 0.0 | 0.01 | 0.20 | 0.01 | 64 | 1011.0 | |
| 20260507051545 | 57 | 0.0 | 0.0 | 0.01 | 0.20 | 0.01 | 67 | 1010.6 | |
| 20260507050046 | 58 | 0.0 | 0.0 | 0.01 | 0.20 | 0.01 | 69 | 1011.1 | |
| 20260507044549 | 59 | 0.0 | 0.0 | 0.01 | 0.20 | 0.01 | 76 | 1011.1 | |
| 20260507043047 | 60 | 0.0 | 0.0 | 0.00 | 0.19 | 0.00 | 78 | 1010.7 | |
| 20260507041551 | 60 | 0.0 | 0.0 | 0.00 | 0.19 | 0.00 | 78 | 1011.0 | |
| 20260507040053 | 61 | 0.0 | 0.0 | 0.00 | 0.19 | 0.00 | 77 | 1010.7 | |
| 20260507034551 | 61 | 0.0 | 0.0 | 0.00 | 0.19 | 0.19 | 77 | 1010.6 | |
| 20260507033052 | 62 | 0.0 | 0.0 | 0.00 | 0.19 | 0.19 | 77 | 1010.4 | |
| 20260507031548 | 62 | 0.0 | 0.0 | 0.00 | 0.19 | 0.19 | 77 | 1010.4 | |
| 20260507030047 | 62 | 0.0 | 0.0 | 0.00 | 0.19 | 0.19 | 77 | 1009.8 | |
| 20260507024548 | 63 | 0.0 | 0.0 | 0.00 | 0.19 | 0.19 | 78 | 1010.1 | |
| 20260507023049 | 64 | 0.0 | 0.0 | 0.00 | 0.19 | 0.19 | 77 | 1010.0 | |
| 20260507021547 | 64 | 0.0 | 0.0 | 0.00 | 0.19 | 0.19 | 76 | 1009.7 | |
| 20260507020106 | 65 | 0.0 | 0.0 | 0.00 | 0.19 | 0.19 | 70 | 1009.6 | |
| 20260507014553 | 65 | 0.0 | 0.0 | 0.00 | 0.19 | 0.19 | 62 | 1009.6 | |
| 20260507013054 | 66 | 0.0 | 0.0 | 0.00 | 0.19 | 0.19 | 51 | 1009.7 | |
| 20260507011546 | 66 | 0.0 | 0.0 | 0.00 | 0.19 | 0.19 | 50 | 1009.9 | |
| 20260507010048 | 66 | 0.0 | 0.0 | 0.00 | 0.19 | 0.19 | 57 | 1009.7 | |
| 20260507004553 | 66 | 0.0 | 0.0 | 0.00 | 0.19 | 0.19 | 58 | 1009.6 | |
| 20260507003048 | 66 | 0.0 | 0.0 | 0.00 | 0.19 | 0.19 | 63 | 1009.3 | |
| 20260507001551 | 66 | 0.0 | 0.0 | 0.00 | 0.19 | 0.19 | 67 | 1009.3 | |
| 20260507000051 | 66 | 0.0 | 0.0 | 0.00 | 0.19 | 0.19 | 69 | 1009.3 | |
| 20260506234550 | 67 | 0.0 | 0.0 | 0.00 | 0.19 | 0.19 | 68 | 1009.0 | |
| 20260506233101 | 67 | 0.0 | 0.0 | 0.00 | 0.19 | 0.19 | 71 | 1008.7 | |
| 20260506231554 | 67 | 0.0 | 0.0 | 0.00 | 0.19 | 0.19 | 73 | 1008.5 | |
| 20260506230049 | 67 | 0.0 | 0.0 | 0.00 | 0.19 | 0.19 | 74 | 1008.5 | |
| 20260506224543 | 67 | 0.0 | 0.0 | 0.00 | 0.19 | 0.19 | 75 | 1008.3 | |
| 20260506223045 | 68 | 0.0 | 0.0 | 0.00 | 0.19 | 0.19 | 75 | 1008.5 | |
| 20260506221548 | 68 | 0.0 | 0.0 | 0.00 | 0.19 | 0.19 | 76 | 1008.3 | |
| 20260506220046 | 68 | 0.0 | 0.0 | 0.00 | 0.19 | 0.19 | 76 | 1008.3 | |
| 20260506214545 | 68 | 0.0 | 0.0 | 0.00 | 0.19 | 0.19 | 76 | 1008.2 | |
| 20260506213058 | 68 | 0.0 | 0.0 | 0.00 | 0.19 | 0.19 | 76 | 1008.3 | |
| 20260506211548 | 68 | 0.0 | 0.0 | 0.00 | 0.19 | 0.19 | 75 | 1008.2 | |
| 20260506210048 | 68 | 0.0 | 0.0 | 0.00 | 0.19 | 0.19 | 75 | 1008.0 | |
| 20260506204549 | 68 | 0.0 | 0.0 | 0.00 | 0.19 | 0.19 | 75 | 1007.9 | |
| 20260506203045 | 68 | 0.0 | 0.0 | 0.00 | 0.19 | 0.19 | 74 | 1007.8 | |
| 20260506201545 | 67 | 0.0 | 0.0 | 0.00 | 0.19 | 0.19 | 75 | 1008.0 | |
| 20260506200043 | 67 | 0.0 | 0.0 | 0.00 | 0.19 | 0.19 | 72 | 1008.0 | |
| 20260506194547 | 67 | 0.0 | 0.0 | 0.00 | 0.19 | 0.19 | 72 | 1008.1 | |
| 20260506193049 | 67 | 0.0 | 0.0 | 0.00 | 0.19 | 0.19 | 69 | 1008.0 | |
| 20260506191550 | 66 | 0.0 | 0.0 | 0.00 | 0.19 | 0.19 | 64 | 1008.1 | |
| 20260506190046 | 65 | 0.0 | 0.0 | 0.00 | 0.19 | 0.19 | 40 | 1008.2 | |
| 20260506184551 | 65 | 0.0 | 0.0 | 0.00 | 0.19 | 0.19 | 42 | 1008.7 | |
| 20260506183056 | 64 | 0.0 | 0.0 | 0.00 | 0.19 | 0.19 | 38 | 1008.6 | |
| 20260506181612 | 64 | 0.0 | 0.0 | 0.00 | 0.19 | 0.19 | 39 | 1008.9 | |
| 20260506180048 | 64 | 0.0 | 0.0 | 0.00 | 0.19 | 0.19 | 18 | 1009.0 | |
| 20260506174549 | 63 | 0.0 | 0.0 | 0.00 | 0.19 | 0.19 | 8 | 1009.0 | |
| 20260506173056 | 62 | 0.0 | 0.0 | 0.00 | 0.19 | 0.19 | 9 | 1009.2 | |
| 20260506171551 | 62 | 0.0 | 0.0 | 0.00 | 0.19 | 0.19 | 3 | 1009.3 | |
| 20260506170047 | 62 | 0.0 | 0.0 | 0.00 | 0.19 | 0.19 | 100 | 1009.4 | |
| 20260506164554 | 62 | 0.0 | 0.0 | 0.00 | 0.19 | 0.19 | 100 | 1009.2 | |
| 20260506163050 | 62 | 0.0 | 0.0 | 0.00 | 0.19 | 0.19 | 100 | 1009.3 | |
| 20260506161548 | 61 | 0.0 | 0.0 | 0.01 | 0.19 | 0.19 | 100 | 1009.5 | |
| 20260506160053 | 61 | 0.0 | 0.0 | 0.02 | 0.19 | 0.19 | 100 | 1009.3 | |
| 20260506154546 | 61 | 0.0 | 0.0 | 0.03 | 0.19 | 0.19 | 100 | 1009.5 | |
| 20260506153107 | 60 | 0.0 | 0.0 | 0.03 | 0.19 | 0.19 | 100 | 1009.8 | |
| 20260506151549 | 60 | 0.0 | 0.0 | 0.03 | 0.18 | 0.18 | 2 | 1009.6 | |
| 20260506150057 | 60 | 0.0 | 0.0 | 0.04 | 0.17 | 0.17 | 3 | 1009.9 | |
| 20260506144554 | 60 | 0.0 | 0.0 | 0.06 | 0.16 | 0.16 | 5 | 1010.4 | |
| 20260506143044 | 60 | 0.0 | 0.0 | 0.12 | 0.16 | 0.16 | 7 | 1010.3 | |
| 20260506141547 | 59 | 0.0 | 0.0 | 0.12 | 0.15 | 0.15 | 13 | 1010.5 |